When you browse on this site, cookies collect data to enhance your experience and personalize the content and advertising you see.
Visit our Privacy Policy to learn more. By continuing to use the site, you agree to this use of cookies and data.
  • Em Portugal
  • Lista de países
  • Para 7 dias
  • Temperatura da água
  • Mapa do tempo
  • Widgets de tempo
  • user-avatar
    Iniciar Sessão

    Previsão horária em Hobart

    Hoje, 17 Fevereiro, Segunda-feira

    Tempo Temperatura Precipitação Vento Pressão Humidade
    00:00 +8°C° 0 mm 1 m/s 752 mmHg 87%
    01:00 +8°C° 0 mm 1 m/s 752 mmHg 88%
    02:00 +8°C° 0 mm 1 m/s 751 mmHg 89%
    03:00 +7°C° 0 mm 1 m/s 751 mmHg 90%
    04:00 +7°C° 0 mm 1 m/s 751 mmHg 91%
    05:00 +8°C° 0 mm 1 m/s 751 mmHg 86%
    06:00 +9°C° 0 mm 1 m/s 751 mmHg 81%
    07:00 +10°C° 0 mm 1 m/s 751 mmHg 76%
    08:00 +12°C° 0 mm 1 m/s 751 mmHg 67%
    09:00 +15°C° 0 mm 1 m/s 750 mmHg 58%
    10:00 +18°C° 0 mm 1 m/s 750 mmHg 48%
    11:00 +18°C° 0 mm 2 m/s 749 mmHg 45%
    12:00 +19°C° 0 mm 2 m/s 749 mmHg 41%
    13:00 +21°C° 0 mm 2 m/s 748 mmHg 37%
    14:00 +20°C° 0 mm 3 m/s 748 mmHg 41%
    15:00 +19°C° 0 mm 3 m/s 747 mmHg 44%
    16:00 +19°C° 0 mm 3 m/s 747 mmHg 48%
    17:00 +17°C° 0 mm 3 m/s 747 mmHg 55%
    18:00 +14°C° 0 mm 3 m/s 747 mmHg 63%
    19:00 +13°C° 0 mm 2 m/s 747 mmHg 71%
    20:00 +12°C° 0 mm 2 m/s 747 mmHg 76%
    21:00 +10°C° 0 mm 2 m/s 747 mmHg 81%
    22:00 +10°C° 0 mm 1 m/s 747 mmHg 87%
    23:00 +9°C° 0 mm 1 m/s 746 mmHg 88%

    Amanhã, 18 Fevereiro, Terça-feira

    Tempo Temperatura Precipitação Vento Pressão Humidade
    00:00 +9°C° 0 mm 1 m/s 746 mmHg 90%
    01:00 +9°C° 0 mm 1 m/s 746 mmHg 91%
    02:00 +8°C° 0 mm 1 m/s 745 mmHg 92%
    03:00 +8°C° 0 mm 1 m/s 745 mmHg 93%
    04:00 +8°C° 0 mm 1 m/s 745 mmHg 93%
    05:00 +9°C° 0 mm 1 m/s 745 mmHg 88%
    06:00 +10°C° 0 mm 1 m/s 745 mmHg 84%
    07:00 +11°C° 0 mm 1 m/s 745 mmHg 79%
    08:00 +14°C° 0 mm 1 m/s 744 mmHg 68%
    09:00 +18°C° 0 mm 1 m/s 744 mmHg 58%
    10:00 +21°C° 0 mm 1 m/s 744 mmHg 47%
    11:00 +21°C° 0 mm 1 m/s 744 mmHg 47%
    12:00 +20°C° 0 mm 2 m/s 744 mmHg 48%
    13:00 +20°C° 0 mm 3 m/s 743 mmHg 48%
    14:00 +20°C° 0 mm 3 m/s 743 mmHg 51%
    15:00 +19°C° 0 mm 2 m/s 743 mmHg 54%
    16:00 +18°C° 0 mm 2 m/s 743 mmHg 57%
    17:00 +17°C° 0 mm 2 m/s 743 mmHg 64%
    18:00 +16°C° 0 mm 2 m/s 743 mmHg 70%
    19:00 +15°C° 0 mm 2 m/s 743 mmHg 77%
    20:00 +14°C° 0 mm 2 m/s 743 mmHg 79%
    21:00 +14°C° 0 mm 2 m/s 743 mmHg 81%
    22:00 +13°C° 0 mm 2 m/s 743 mmHg 83%
    23:00 +13°C° 0.1 mm 2 m/s 743 mmHg 84%

    Depois de amanhã, 19 Fevereiro, Quarta-feira

    Tempo Temperatura Precipitação Vento Pressão Humidade
    00:00 +13°C° 0.1 mm 2 m/s 743 mmHg 86%
    01:00 +12°C° 0.1 mm 3 m/s 743 mmHg 87%
    02:00 +11°C° 0.1 mm 3 m/s 743 mmHg 86%
    03:00 +11°C° 0.1 mm 3 m/s 743 mmHg 86%
    04:00 +11°C° 0.1 mm 3 m/s 743 mmHg 86%
    05:00 +11°C° 0 mm 4 m/s 743 mmHg 84%
    06:00 +11°C° 0 mm 4 m/s 743 mmHg 83%
    07:00 +10°C° 0 mm 5 m/s 744 mmHg 82%
    08:00 +12°C° 0 mm 5 m/s 744 mmHg 76%
    09:00 +12°C° 0 mm 5 m/s 744 mmHg 71%
    10:00 +13°C° 0 mm 5 m/s 745 mmHg 66%
    11:00 +13°C° 0 mm 5 m/s 744 mmHg 66%
    12:00 +14°C° 0 mm 5 m/s 744 mmHg 65%
    13:00 +14°C° 0 mm 5 m/s 744 mmHg 65%
    14:00 +14°C° 0.1 mm 5 m/s 744 mmHg 67%
    15:00 +14°C° 0.1 mm 5 m/s 744 mmHg 69%
    16:00 +14°C° 0.1 mm 4 m/s 744 mmHg 71%
    17:00 +13°C° 0.1 mm 4 m/s 744 mmHg 76%
    18:00 +13°C° 0.1 mm 4 m/s 745 mmHg 81%
    19:00 +12°C° 0.1 mm 4 m/s 745 mmHg 86%
    20:00 +11°C° 0.1 mm 4 m/s 745 mmHg 88%
    21:00 +10°C° 0.1 mm 4 m/s 746 mmHg 91%
    22:00 +8°C° 0.1 mm 4 m/s 746 mmHg 93%
    23:00 +7°C° 0 mm 4 m/s 745 mmHg 93%

    20 Fevereiro, Quinta-feira

    Tempo Temperatura Precipitação Vento Pressão Humidade
    00:00 +8°C° 0 mm 3 m/s 745 mmHg 93%
    01:00 +7°C° 0 mm 3 m/s 745 mmHg 93%
    02:00 +7°C° 0 mm 3 m/s 745 mmHg 93%
    03:00 +7°C° 0 mm 3 m/s 745 mmHg 93%
    04:00 +5°C° 0 mm 3 m/s 744 mmHg 92%
    05:00 +7°C° 0 mm 3 m/s 745 mmHg 91%
    06:00 +7°C° 0 mm 2 m/s 745 mmHg 89%
    07:00 +8°C° 0 mm 2 m/s 745 mmHg 87%
    08:00 +10°C° 0 mm 2 m/s 745 mmHg 76%
    09:00 +13°C° 0 mm 2 m/s 745 mmHg 65%
    10:00 +15°C° 0 mm 2 m/s 745 mmHg 54%
    11:00 +16°C° 0 mm 3 m/s 745 mmHg 50%
    12:00 +17°C° 0 mm 3 m/s 744 mmHg 46%
    13:00 +19°C° 0 mm 3 m/s 744 mmHg 43%
    14:00 +18°C° 0 mm 4 m/s 743 mmHg 44%
    15:00 +18°C° 0 mm 4 m/s 743 mmHg 46%
    16:00 +17°C° 0 mm 4 m/s 742 mmHg 48%
    17:00 +15°C° 0 mm 4 m/s 743 mmHg 54%
    18:00 +14°C° 0 mm 4 m/s 743 mmHg 61%
    19:00 +13°C° 0 mm 4 m/s 743 mmHg 68%
    20:00 +12°C° 0.6 mm 4 m/s 743 mmHg 75%
    21:00 +11°C° 0.6 mm 4 m/s 744 mmHg 82%
    22:00 +10°C° 0.6 mm 4 m/s 744 mmHg 89%
    23:00 +8°C° 0 mm 4 m/s 744 mmHg 89%

    21 Fevereiro, Sexta-feira

    Tempo Temperatura Precipitação Vento Pressão Humidade
    00:00 +7°C° 0 mm 4 m/s 744 mmHg 89%
    01:00 +6°C° 0 mm 4 m/s 745 mmHg 89%
    02:00 +5°C° 0 mm 4 m/s 745 mmHg 89%
    03:00 +5°C° 0 mm 4 m/s 745 mmHg 89%
    04:00 +5°C° 0 mm 4 m/s 745 mmHg 89%
    05:00 +5°C° 0 mm 4 m/s 745 mmHg 86%
    06:00 +6°C° 0 mm 4 m/s 745 mmHg 84%
    07:00 +6°C° 0 mm 4 m/s 746 mmHg 82%
    08:00 +8°C° 0 mm 5 m/s 746 mmHg 72%
    09:00 +10°C° 0 mm 6 m/s 746 mmHg 63%
    10:00 +11°C° 0 mm 6 m/s 747 mmHg 53%
    11:00 +13°C° 0 mm 6 m/s 747 mmHg 49%
    12:00 +14°C° 0 mm 6 m/s 747 mmHg 45%
    13:00 +15°C° 0 mm 6 m/s 747 mmHg 41%
    14:00 +14°C° 0 mm 6 m/s 747 mmHg 42%
    15:00 +14°C° 0 mm 6 m/s 748 mmHg 43%
    16:00 +14°C° 0 mm 6 m/s 748 mmHg 44%
    23:00 +5°C° 0 mm 3 m/s 751 mmHg 81%

    22 Fevereiro, Sábado

    Tempo Temperatura Precipitação Vento Pressão Humidade
    00:00 +5°C° 0 mm 3 m/s 752 mmHg 84%
    01:00 +5°C° 0 mm 2 m/s 752 mmHg 86%
    02:00 +5°C° 0 mm 2 m/s 752 mmHg 88%
    03:00 +5°C° 0 mm 2 m/s 752 mmHg 89%
    04:00 +5°C° 0 mm 2 m/s 752 mmHg 91%
    05:00 +5°C° 0 mm 2 m/s 753 mmHg 87%
    06:00 +6°C° 0 mm 2 m/s 753 mmHg 84%
    07:00 +7°C° 0 mm 2 m/s 754 mmHg 80%
    08:00 +11°C° 0 mm 1 m/s 754 mmHg 66%
    09:00 +14°C° 0 mm 1 m/s 754 mmHg 53%
    10:00 +18°C° 0 mm 1 m/s 754 mmHg 39%
    11:00 +20°C° 0 mm 1 m/s 754 mmHg 36%
    12:00 +21°C° 0 mm 1 m/s 754 mmHg 34%
    13:00 +23°C° 0 mm 2 m/s 754 mmHg 31%
    14:00 +21°C° 0 mm 2 m/s 754 mmHg 35%
    15:00 +20°C° 0 mm 3 m/s 754 mmHg 39%
    16:00 +19°C° 0 mm 3 m/s 753 mmHg 43%
    17:00 +17°C° 0 mm 3 m/s 754 mmHg 52%
    18:00 +14°C° 0 mm 3 m/s 754 mmHg 61%
    19:00 +13°C° 0 mm 2 m/s 754 mmHg 70%
    20:00 +12°C° 0 mm 2 m/s 755 mmHg 76%
    21:00 +11°C° 0 mm 1 m/s 755 mmHg 82%
    22:00 +10°C° 0 mm 1 m/s 756 mmHg 89%
    23:00 +10°C° 0 mm 1 m/s 756 mmHg 90%
    Mostrar mais